2023/10/23 00:00:00, 0.2, 9.3
2023/10/23 00:10:00, 0.3, 9.2
2023/10/23 00:20:00, 0.2, 9.2
2023/10/23 00:30:00, 0.2, 9.3
2023/10/23 00:40:00, 0.2, 9.2
2023/10/23 00:50:00, 0.2, 9.4
2023/10/23 01:00:00, 0.2, 9.2
2023/10/23 01:10:00, 0.2, 9.1
2023/10/23 01:20:00, 0.2, 9.2
2023/10/23 01:30:00, 0.2, 9.3
2023/10/23 01:40:00, 0.2, 9.4
2023/10/23 01:50:00, 0.2, 9.2
2023/10/23 02:00:00, 0.2, 9.2
2023/10/23 02:10:00, 0.2, 9.5
2023/10/23 02:20:00, 0.2, 8.9
2023/10/23 02:30:00, 0.2, 8.8
2023/10/23 02:40:00, 0.2, 8.9
2023/10/23 02:50:00, 0.2, 8.7
2023/10/23 03:00:00, 0.2, 8.8
2023/10/23 03:10:00, 0.2, 8.6
2023/10/23 03:20:00, 0.2, 8.8
2023/10/23 03:30:00, 0.3, 8.7
2023/10/23 03:40:00, 0.2, 8.4
2023/10/23 03:50:00, 0.2, 8.6
2023/10/23 04:00:00, 0.2, 8.3
2023/10/23 04:10:00, 0.2, 8.5
2023/10/23 04:20:00, 0.2, 9.0
2023/10/23 04:30:00, 0.2, 8.5
2023/10/23 04:40:00, 0.2, 8.4
2023/10/23 04:50:00, 0.2, 8.2
2023/10/23 05:00:00, 0.2, 8.3
2023/10/23 05:10:00, 0.2, 8.3
2023/10/23 05:20:00, 0.2, 8.3
2023/10/23 05:30:00, 0.2, 8.5
2023/10/23 05:40:00, 0.2, 8.5
2023/10/23 05:50:00, 0.2, 8.4
2023/10/23 06:00:00, 0.2, 8.4
2023/10/23 06:10:00, 0.2, 8.4
2023/10/23 06:20:00, 0.2, 8.5
2023/10/23 06:30:00, 0.2, 8.4
2023/10/23 06:40:00, 0.2, 8.1
2023/10/23 06:50:00, 0.2, 8.4
2023/10/23 07:00:00, 0.2, 8.3
2023/10/23 07:10:00, 0.2, 8.2
2023/10/23 07:20:00, 0.1, 8.4
2023/10/23 07:30:00, 0.2, 8.5
2023/10/23 07:40:00, 0.2, 8.5
2023/10/23 07:50:00, 0.2, 8.8
2023/10/23 08:00:00, 0.2, 8.8
2023/10/23 08:10:00, 0.1, 9.7
2023/10/23 08:20:00, 0.1,10.9
2023/10/23 08:30:00, 0.1,13.5
2023/10/23 08:40:00, 0.1,13.0
2023/10/23 08:50:00, 0.2,14.4
2023/10/23 09:00:00, 0.3,14.9
2023/10/23 09:10:00, 0.1,15.6
2023/10/23 09:20:00, 0.1,16.0
2023/10/23 09:30:00, 0.0,15.9
2023/10/23 09:40:00, 0.1,15.7
2023/10/23 09:50:00, 0.0,15.7
2023/10/23 10:00:00, 0.1,16.1
2023/10/23 10:10:00, 0.0,16.7
2023/10/23 10:20:00, 0.0,17.1
2023/10/23 10:30:00, 0.0,17.4
2023/10/23 10:40:00, 0.0,17.9
2023/10/23 10:50:00, 0.0,18.7
2023/10/23 11:00:00, 0.0,18.9
2023/10/23 11:10:00, 0.0,19.2
2023/10/23 11:20:00, 0.0,20.2
2023/10/23 11:30:00, 0.0,20.5
2023/10/23 11:40:00, 0.0,21.2
2023/10/23 11:50:00, 0.0,21.0
2023/10/23 12:00:00, 0.0,21.1
2023/10/23 12:10:00, 0.0,21.7
2023/10/23 12:20:00, 0.0,21.8
2023/10/23 12:30:00, 0.0,22.6
2023/10/23 12:40:00, 0.0,23.2
2023/10/23 12:50:00, 0.0,22.6
2023/10/23 13:00:00, 0.0,24.2
2023/10/23 13:10:00, 0.0,25.2
2023/10/23 13:20:00, 0.0,24.0
2023/10/23 13:30:00, 0.0,23.7
2023/10/23 13:40:00, 0.0,23.8
2023/10/23 13:50:00, 0.1,23.0
2023/10/23 14:00:00, 0.0,24.0
2023/10/23 14:10:00, 0.0,24.0
2023/10/23 14:20:00, 0.0,23.9
2023/10/23 14:30:00, 0.0,23.5
2023/10/23 14:40:00, 0.0,23.7
2023/10/23 14:50:00, 0.0,22.3
2023/10/23 15:00:00, 0.1,21.9
2023/10/23 15:10:00, 0.0,22.0
2023/10/23 15:20:00, 0.0,21.5
2023/10/23 15:30:00, 0.0,21.2
2023/10/23 15:40:00, 0.0,20.8
2023/10/23 15:50:00, 0.0,20.8
2023/10/23 16:00:00, 0.0,20.7
2023/10/23 16:10:00, 0.0,19.8
2023/10/23 16:20:00, 0.0,19.4
2023/10/23 16:30:00, 0.0,18.7
2023/10/23 16:40:00, 0.0,17.9
2023/10/23 16:50:00, 0.1,17.1
2023/10/23 17:00:00, 0.1,16.3
2023/10/23 17:10:00, 0.1,15.8
2023/10/23 17:20:00, 0.1,15.3
2023/10/23 17:30:00, 0.1,14.7
2023/10/23 17:40:00, 0.1,14.1
2023/10/23 17:50:00, 0.1,13.8
2023/10/23 18:00:00, 0.1,13.8
2023/10/23 18:10:00, 0.1,13.6
2023/10/23 18:20:00, 0.1,13.2
2023/10/23 18:30:00, 0.2,13.1
2023/10/23 18:40:00, 0.2,12.8
2023/10/23 18:50:00, 0.2,12.8
2023/10/23 19:00:00, 0.2,12.5
2023/10/23 19:10:00, 0.2,12.7
2023/10/23 19:20:00, 0.3,12.8
2023/10/23 19:30:00, 0.3,12.5
2023/10/23 19:40:00, 0.3,12.4
2023/10/23 19:50:00, 0.3,12.2
2023/10/23 20:00:00, 0.3,12.0
2023/10/23 20:10:00, 0.3,12.1
2023/10/23 20:20:00, 0.3,12.1
2023/10/23 20:30:00, 0.3,12.2
2023/10/23 20:40:00, 0.3,12.3
2023/10/23 20:50:00, 0.3,11.9
2023/10/23 21:00:00, 0.3,12.0
2023/10/23 21:10:00, 0.3,11.5
2023/10/23 21:20:00, 0.2,12.0
2023/10/23 21:30:00, 0.2,11.7
2023/10/23 21:40:00, 0.2,11.7
2023/10/23 21:50:00, 0.3,11.4
2023/10/23 22:00:00, 0.3,11.4
2023/10/23 22:10:00, 0.3,11.3
2023/10/23 22:20:00, 0.2,11.1
2023/10/23 22:30:00, 0.2,10.9
2023/10/23 22:40:00, 0.3,10.8
2023/10/23 22:50:00, 0.2,10.8
2023/10/23 23:00:00, 0.2,10.6
2023/10/23 23:10:00, 0.2,10.5
2023/10/23 23:20:00, 0.2,10.6
2023/10/23 23:30:00, 0.1,10.6
2023/10/23 23:40:00, 0.1,10.3
2023/10/23 23:50:00, 0.2,10.2
